Location: Newark
(8.3667°S, 17.0167°E)
Time: 09:52:08
(UTC+00:00)

N. Korean satellite - Visible Passes

Search period start: 14 November 2019 00:00
Search period end: 24 November 2019 00:00
Orbit: 456 x 506 km, 97.2° (Epoch: 13 November)

Date Brightness Start Highest point End Pass type
(mag) Time Alt. Az. Time Alt. Az. Time Alt. Az.
14 Nov 9.1 03:49:44 10° NE 03:52:51 27° ESE 03:55:56 10° SSE visible
15 Nov 10.4 03:26:35 10° E 03:27:35 11° ESE 03:28:35 10° ESE visible
18 Nov 9.7 03:42:01 10° NE 03:44:44 20° ESE 03:47:25 10° SSE visible
21 Nov 10.1 17:16:03 10° SW 17:17:54 14° WSW 17:19:45 10° WNW visible
22 Nov 9.9 03:34:26 10° ENE 03:36:34 15° ESE 03:38:39 10° SE visible
